Weather History for KIPL - March, 2013

Change the Weather History Date:

Friday, March 15, 2013

  Actual Average Record
Temperature  
Mean Temperature 77 °F -  
Max Temperature 96 °F 79 °F 96 °F (2013)
Min Temperature 59 °F 49 °F 35 °F (1962)
Cooling Degree Days 12    
Growing Degree Days 27 (Base 50)    
Moisture  
Dew Point 39 °F    
Average Humidity 28    
Maximum Humidity 44    
Minimum Humidity 12    
Precipitation  
Precipitation 0.00 in - - ()
Sea Level Pressure  
Sea Level Pressure 29.86 in    
Wind  
Wind Speed 6 mph (SW)    
Max Wind Speed 12 mph    
Max Gust Speed -    
Visibility 10 miles    
Events      
Averages and records for this station are not official NWS values.
T = Trace of Precipitation, MM = Missing Value Source: NWS Daily Summary

Daily Weather History Graph

Daily Weather History Graph

Search for Another Location

Airport or City:

Trip Planner

Search our weather history database for the weather conditions in past years. The results will help you decide how hot, cold, wet, or windy it might be!

Date:

Astronomy

Mar. 15, 2013 Rise Set
Actual Time 6:52 AM PDT 6:50 PM PDT
Civil Twilight 6:27 AM PDT 7:15 PM PDT
Nautical Twilight 5:58 AM PDT 7:43 PM PDT
Astronomical Twilight 5:30 AM PDT 8:12 PM PDT
Moon 8:59 AM PDT (3/15) 10:52 PM PDT (3/15)
Length of Visible Light 12h 47m
Length of Day
11h 58m
Waxing Crescent, 16% of the Moon is Illuminated
Mar 15
Waxing Crescent
Mar 19
First Quarter
Mar 27
Full
Apr 2
Last Quarter
Apr 10
New

Hourly Weather History & Observations

Time (PDT) Temp. Dew Point Humidity Pressure Visibility Wind Dir Wind Speed Gust Speed Precip Events Conditions
12:53 AM 64.0 °F 39.0 °F 40% 29.93 in 10.0 mi West 9.2 mph - N/A   Clear
1:53 AM 64.9 °F 37.0 °F 36% 29.92 in 10.0 mi WSW 5.8 mph - N/A   Clear
2:53 AM 63.0 °F 37.0 °F 38% 29.90 in 10.0 mi West 6.9 mph - N/A   Clear
3:53 AM 61.0 °F 37.9 °F 42% 29.88 in 10.0 mi SW 3.5 mph - N/A   Clear
4:53 AM 60.1 °F 37.9 °F 44% 29.89 in 10.0 mi West 4.6 mph - N/A   Clear
5:53 AM 60.1 °F 35.1 °F 39% 29.90 in 10.0 mi WSW 5.8 mph - N/A   Clear
6:53 AM 59.0 °F 37.0 °F 44% 29.90 in 10.0 mi WSW 5.8 mph - N/A   Clear
7:53 AM 64.0 °F 35.1 °F 34% 29.91 in 10.0 mi Calm Calm - N/A   Clear
8:53 AM 71.1 °F 44.1 °F 38% 29.92 in 10.0 mi West 3.5 mph - N/A   Clear
9:53 AM 79.0 °F 45.0 °F 30% 29.93 in 10.0 mi Calm Calm - N/A   Clear
10:53 AM 84.9 °F 41.0 °F 21% 29.93 in 10.0 mi WNW 3.5 mph - N/A   Clear
11:53 AM 88.0 °F 42.1 °F 20% 29.92 in 10.0 mi East 3.5 mph - N/A   Clear
12:53 PM 89.1 °F 46.9 °F 23% 29.90 in 10.0 mi Variable 4.6 mph - N/A   Clear
1:53 PM 91.0 °F 45.0 °F 20% 29.86 in 10.0 mi East 3.5 mph - N/A   Clear
2:53 PM 93.9 °F 37.0 °F 14% 29.83 in 10.0 mi ESE 8.1 mph - N/A   Clear
3:53 PM 93.9 °F 37.0 °F 14% 29.81 in 10.0 mi SE 8.1 mph - N/A   Clear
4:53 PM 95.0 °F 34.0 °F 12% 29.79 in 10.0 mi SE 11.5 mph - N/A   Clear
5:53 PM 93.0 °F 39.9 °F 16% 29.78 in 10.0 mi SE 11.5 mph - N/A   Clear
6:53 PM 88.0 °F 37.9 °F 17% 29.78 in 10.0 mi SE 5.8 mph - N/A   Clear
7:53 PM 79.0 °F 48.9 °F 35% 29.79 in 10.0 mi WSW 9.2 mph - N/A   Clear
8:53 PM 75.9 °F 44.1 °F 32% 29.80 in 10.0 mi WSW 8.1 mph - N/A   Clear
9:53 PM 75.0 °F 39.0 °F 27% 29.81 in 10.0 mi WSW 10.4 mph - N/A   Clear
10:53 PM 73.9 °F 33.1 °F 22% 29.82 in 10.0 mi WNW 10.4 mph - N/A   Clear
11:53 PM 70.0 °F 28.9 °F 22% 29.81 in 10.0 mi WNW 8.1 mph - N/A   Clear